Year,Month,Day,Hour,Minute,Value (Times are PST for temperature in C)
2020,10,03,00,00,15.20
2020,10,03,00,01,15.20
2020,10,03,00,02,15.20
2020,10,03,00,03,15.20
2020,10,03,00,04,15.20
2020,10,03,00,05,15.10
2020,10,03,00,06,15.10
2020,10,03,00,07,15.10
2020,10,03,00,08,15.10
2020,10,03,00,09,15.10
2020,10,03,00,10,15.10
2020,10,03,00,11,15.10
2020,10,03,00,12,15.10
2020,10,03,00,13,15.10
2020,10,03,00,14,15.10
2020,10,03,00,15,15.10
2020,10,03,00,16,15.10
2020,10,03,00,17,15.10
2020,10,03,00,18,15.10
2020,10,03,00,19,15.10
2020,10,03,00,20,15.10
2020,10,03,00,21,15.10
2020,10,03,00,22,15.10
2020,10,03,00,23,15.10
2020,10,03,00,24,15.20
2020,10,03,00,25,15.20
2020,10,03,00,26,15.20
2020,10,03,00,27,15.20
2020,10,03,00,28,15.20
2020,10,03,00,29,15.20
2020,10,03,00,30,15.20
2020,10,03,00,31,15.20
2020,10,03,00,32,15.10
2020,10,03,00,33,15.10
2020,10,03,00,34,15.10
2020,10,03,00,35,15.10
2020,10,03,00,36,15.10
2020,10,03,00,37,15.10
2020,10,03,00,38,15.10
2020,10,03,00,39,15.10
2020,10,03,00,40,15.10
2020,10,03,00,41,15.00
2020,10,03,00,42,15.00
2020,10,03,00,43,15.00
2020,10,03,00,44,15.00
2020,10,03,00,45,15.00
2020,10,03,00,46,15.00
2020,10,03,00,47,15.00
2020,10,03,00,48,15.00
2020,10,03,00,49,15.00
2020,10,03,00,50,15.00
2020,10,03,00,51,15.00
2020,10,03,00,52,15.00
2020,10,03,00,53,15.00
2020,10,03,00,54,15.00
2020,10,03,00,55,15.00
2020,10,03,00,56,15.00
2020,10,03,00,57,15.00
2020,10,03,00,58,15.00
2020,10,03,00,59,15.00
2020,10,03,01,00,15.00
2020,10,03,01,01,15.00
2020,10,03,01,02,15.00
2020,10,03,01,03,15.00
2020,10,03,01,04,15.00
2020,10,03,01,05,15.00
2020,10,03,01,06,15.00
2020,10,03,01,07,15.00
2020,10,03,01,08,15.00
2020,10,03,01,09,15.00
2020,10,03,01,10,15.00
2020,10,03,01,11,15.00
2020,10,03,01,12,15.00
2020,10,03,01,13,15.00
2020,10,03,01,14,15.00
2020,10,03,01,15,15.00
2020,10,03,01,16,14.90
2020,10,03,01,17,14.90
2020,10,03,01,18,14.90
2020,10,03,01,19,14.80
2020,10,03,01,20,14.80
2020,10,03,01,21,14.80
2020,10,03,01,22,14.80
2020,10,03,01,23,14.80
2020,10,03,01,24,14.80
2020,10,03,01,25,14.80
2020,10,03,01,26,14.80
2020,10,03,01,27,14.80
2020,10,03,01,28,14.80
2020,10,03,01,29,14.80
2020,10,03,01,30,14.80
2020,10,03,01,31,14.80
2020,10,03,01,32,14.80
2020,10,03,01,33,14.80
2020,10,03,01,34,14.80
2020,10,03,01,35,14.80
2020,10,03,01,36,14.80
2020,10,03,01,37,14.70
2020,10,03,01,38,14.70
2020,10,03,01,39,14.70
2020,10,03,01,40,14.70
2020,10,03,01,41,14.70
2020,10,03,01,42,14.70
2020,10,03,01,43,14.70
2020,10,03,01,44,14.70
2020,10,03,01,45,14.60
2020,10,03,01,46,14.60
2020,10,03,01,47,14.60
2020,10,03,01,48,14.60
2020,10,03,01,49,14.60
2020,10,03,01,50,14.60
2020,10,03,01,51,14.60
2020,10,03,01,52,14.50
2020,10,03,01,53,14.50
2020,10,03,01,54,14.50
2020,10,03,01,55,14.50
2020,10,03,01,56,14.50
2020,10,03,01,57,14.40
2020,10,03,01,58,14.40
2020,10,03,01,59,14.40
2020,10,03,02,00,14.40
2020,10,03,02,01,14.40
2020,10,03,02,02,14.30
2020,10,03,02,03,14.30
2020,10,03,02,04,14.30
2020,10,03,02,05,14.30
2020,10,03,02,06,14.30
2020,10,03,02,07,14.30
2020,10,03,02,08,14.30
2020,10,03,02,09,14.30
2020,10,03,02,10,14.30
2020,10,03,02,11,14.30
2020,10,03,02,12,14.30
2020,10,03,02,13,14.30
2020,10,03,02,14,14.30
2020,10,03,02,15,14.30
2020,10,03,02,16,14.40
2020,10,03,02,17,14.40
2020,10,03,02,18,14.40
2020,10,03,02,19,14.40
2020,10,03,02,20,14.30
2020,10,03,02,21,14.30
2020,10,03,02,22,14.30
2020,10,03,02,23,14.30
2020,10,03,02,24,14.30
2020,10,03,02,25,14.30
2020,10,03,02,26,14.30
2020,10,03,02,27,14.30
2020,10,03,02,28,14.30
2020,10,03,02,29,14.30
2020,10,03,02,30,14.30
2020,10,03,02,31,14.30
2020,10,03,02,32,14.30
2020,10,03,02,33,14.20
2020,10,03,02,34,14.20
2020,10,03,02,35,14.20
2020,10,03,02,36,14.20
2020,10,03,02,37,14.20
2020,10,03,02,38,14.10
2020,10,03,02,39,14.00
2020,10,03,02,40,14.00
2020,10,03,02,41,14.00
2020,10,03,02,42,13.90
2020,10,03,02,43,13.90
2020,10,03,02,44,13.90
2020,10,03,02,45,13.90
2020,10,03,02,46,13.80
2020,10,03,02,47,13.80
2020,10,03,02,48,13.80
2020,10,03,02,49,13.80
2020,10,03,02,50,13.80
2020,10,03,02,51,13.80
2020,10,03,02,52,13.80
2020,10,03,02,53,13.80
2020,10,03,02,54,13.80
2020,10,03,02,55,13.80
2020,10,03,02,56,13.80
2020,10,03,02,57,13.80
2020,10,03,02,58,13.80
2020,10,03,02,59,13.80
2020,10,03,03,00,13.80
2020,10,03,03,01,13.80
2020,10,03,03,02,13.80
2020,10,03,03,03,13.80
2020,10,03,03,04,13.80
2020,10,03,03,05,13.90
2020,10,03,03,06,13.90
2020,10,03,03,07,13.90
2020,10,03,03,08,13.90
2020,10,03,03,09,13.90
2020,10,03,03,10,13.90
2020,10,03,03,11,13.90
2020,10,03,03,12,13.90
2020,10,03,03,13,13.90
2020,10,03,03,14,13.90
2020,10,03,03,15,13.90
2020,10,03,03,16,13.90
2020,10,03,03,17,13.90
2020,10,03,03,18,13.90
2020,10,03,03,19,13.90
2020,10,03,03,20,13.90
2020,10,03,03,21,13.90
2020,10,03,03,22,13.90
2020,10,03,03,23,13.90
2020,10,03,03,24,13.90
2020,10,03,03,25,13.90
2020,10,03,03,26,13.90
2020,10,03,03,27,13.90
2020,10,03,03,28,13.90
2020,10,03,03,29,13.90
2020,10,03,03,30,13.80
2020,10,03,03,31,13.80
2020,10,03,03,32,13.80
2020,10,03,03,33,13.80
2020,10,03,03,34,13.80
2020,10,03,03,35,13.80
2020,10,03,03,36,13.80
2020,10,03,03,37,13.80
2020,10,03,03,38,13.80
2020,10,03,03,39,13.80
2020,10,03,03,40,13.70
2020,10,03,03,41,13.70
2020,10,03,03,42,13.70
2020,10,03,03,43,13.70
2020,10,03,03,44,13.70
2020,10,03,03,45,13.70
2020,10,03,03,46,13.70
2020,10,03,03,47,13.70
2020,10,03,03,48,13.70
2020,10,03,03,49,13.60
2020,10,03,03,50,13.60
2020,10,03,03,51,13.60
2020,10,03,03,52,13.60
2020,10,03,03,53,13.60
2020,10,03,03,54,13.60
2020,10,03,03,55,13.60
2020,10,03,03,56,13.60
2020,10,03,03,57,13.60
2020,10,03,03,58,13.60
2020,10,03,03,59,13.60
2020,10,03,04,00,13.60
2020,10,03,04,01,13.60
2020,10,03,04,02,13.60
2020,10,03,04,03,13.60
2020,10,03,04,04,13.60
2020,10,03,04,05,13.60
2020,10,03,04,06,13.60
2020,10,03,04,07,13.60
2020,10,03,04,08,13.60
2020,10,03,04,09,13.60
2020,10,03,04,10,13.60
2020,10,03,04,11,13.60
2020,10,03,04,12,13.60
2020,10,03,04,13,13.50
2020,10,03,04,14,13.50
2020,10,03,04,15,13.50
2020,10,03,04,16,13.50
2020,10,03,04,17,13.50
2020,10,03,04,18,13.50
2020,10,03,04,19,13.50
2020,10,03,04,20,13.50
2020,10,03,04,21,13.40
2020,10,03,04,22,13.40
2020,10,03,04,23,13.40
2020,10,03,04,24,13.40
2020,10,03,04,25,13.40
2020,10,03,04,26,13.40
2020,10,03,04,27,13.40
2020,10,03,04,28,13.40
2020,10,03,04,29,13.40
2020,10,03,04,30,13.40
2020,10,03,04,31,13.40
2020,10,03,04,32,13.40
2020,10,03,04,33,13.40
2020,10,03,04,34,13.40
2020,10,03,04,35,13.40
2020,10,03,04,36,13.40
2020,10,03,04,37,13.40
2020,10,03,04,38,13.40
2020,10,03,04,39,13.40
2020,10,03,04,40,13.40
2020,10,03,04,41,13.40
2020,10,03,04,42,13.40
2020,10,03,04,43,13.40
2020,10,03,04,44,13.40
2020,10,03,04,45,13.40
2020,10,03,04,46,13.40
2020,10,03,04,47,13.30
2020,10,03,04,48,13.30
2020,10,03,04,49,13.30
2020,10,03,04,50,13.30
2020,10,03,04,51,13.30
2020,10,03,04,52,13.30
2020,10,03,04,53,13.30
2020,10,03,04,54,13.30
2020,10,03,04,55,13.30
2020,10,03,04,56,13.30
2020,10,03,04,57,13.30
2020,10,03,04,58,13.20
2020,10,03,04,59,13.20
2020,10,03,05,00,13.20
2020,10,03,05,01,13.20
2020,10,03,05,02,13.20
2020,10,03,05,03,13.20
2020,10,03,05,04,13.20
2020,10,03,05,05,13.20
2020,10,03,05,06,13.20
2020,10,03,05,07,13.20
2020,10,03,05,08,13.20
2020,10,03,05,09,13.20
2020,10,03,05,10,13.20
2020,10,03,05,11,13.20
2020,10,03,05,12,13.20
2020,10,03,05,13,13.10
2020,10,03,05,14,13.10
2020,10,03,05,15,13.10
2020,10,03,05,16,13.10
2020,10,03,05,17,13.10
2020,10,03,05,18,13.10
2020,10,03,05,19,13.10
2020,10,03,05,20,13.10
2020,10,03,05,21,13.10
2020,10,03,05,22,13.10
2020,10,03,05,23,13.10
2020,10,03,05,24,13.00
2020,10,03,05,25,13.00
2020,10,03,05,26,13.00
2020,10,03,05,27,12.90
2020,10,03,05,28,12.90
2020,10,03,05,29,12.90
2020,10,03,05,30,12.90
2020,10,03,05,31,12.90
2020,10,03,05,32,12.90
2020,10,03,05,33,13.00
2020,10,03,05,34,13.00
2020,10,03,05,35,13.00
2020,10,03,05,36,13.00
2020,10,03,05,37,13.00
2020,10,03,05,38,13.00
2020,10,03,05,39,13.00
2020,10,03,05,40,13.00
2020,10,03,05,41,13.00
2020,10,03,05,42,13.00
2020,10,03,05,43,13.10
2020,10,03,05,44,13.10
2020,10,03,05,45,13.10
2020,10,03,05,46,13.10
2020,10,03,05,47,13.20
2020,10,03,05,48,13.20
2020,10,03,05,49,13.30
2020,10,03,05,50,13.30
2020,10,03,05,51,13.30
2020,10,03,05,52,13.30
2020,10,03,05,53,13.30
2020,10,03,05,54,13.30
2020,10,03,05,55,13.40
2020,10,03,05,56,13.40
2020,10,03,05,57,13.50
2020,10,03,05,58,13.50
2020,10,03,05,59,13.60
2020,10,03,06,00,13.60
2020,10,03,06,01,13.70
2020,10,03,06,02,13.70
2020,10,03,06,03,13.80
2020,10,03,06,04,13.80
2020,10,03,06,05,13.70
2020,10,03,06,06,13.70
2020,10,03,06,07,13.60
2020,10,03,06,08,13.60
2020,10,03,06,09,13.50
2020,10,03,06,10,13.40
2020,10,03,06,11,13.30
2020,10,03,06,12,13.30
2020,10,03,06,13,13.20
2020,10,03,06,14,13.20
2020,10,03,06,15,13.20
2020,10,03,06,16,13.20
2020,10,03,06,17,13.10
2020,10,03,06,18,13.10
2020,10,03,06,19,13.10
2020,10,03,06,20,13.20
2020,10,03,06,21,13.20
2020,10,03,06,22,13.20
2020,10,03,06,23,13.20
2020,10,03,06,24,13.30
2020,10,03,06,25,13.30
2020,10,03,06,26,13.30
2020,10,03,06,27,13.30
2020,10,03,06,28,13.30
2020,10,03,06,29,13.30
2020,10,03,06,30,13.30
2020,10,03,06,31,13.40
2020,10,03,06,32,13.40
2020,10,03,06,33,13.40
2020,10,03,06,34,13.30
2020,10,03,06,35,13.30
2020,10,03,06,36,13.30
2020,10,03,06,37,13.30
2020,10,03,06,38,13.20
2020,10,03,06,39,13.20
2020,10,03,06,40,13.20
2020,10,03,06,41,13.20
2020,10,03,06,42,13.20
2020,10,03,06,43,13.10
2020,10,03,06,44,13.10
2020,10,03,06,45,13.10
2020,10,03,06,46,13.00
2020,10,03,06,47,13.00
2020,10,03,06,48,12.90
2020,10,03,06,49,12.90
2020,10,03,06,50,12.80
2020,10,03,06,51,12.80
2020,10,03,06,52,12.80
2020,10,03,06,53,12.80
2020,10,03,06,54,12.80
2020,10,03,06,55,12.80
2020,10,03,06,56,12.70
2020,10,03,06,57,12.70
2020,10,03,06,58,12.70
2020,10,03,06,59,12.70
2020,10,03,07,00,12.70
2020,10,03,07,01,12.70
2020,10,03,07,02,12.80
2020,10,03,07,03,12.80
2020,10,03,07,04,12.80
2020,10,03,07,05,12.80
2020,10,03,07,06,12.80
2020,10,03,07,07,12.80
2020,10,03,07,08,12.80
2020,10,03,07,09,12.80
2020,10,03,07,10,12.80
2020,10,03,07,11,12.80
2020,10,03,07,12,12.80
2020,10,03,07,13,12.80
2020,10,03,07,14,12.80
2020,10,03,07,15,12.80
2020,10,03,07,16,12.70
2020,10,03,07,17,12.70
2020,10,03,07,18,12.70
2020,10,03,07,19,12.70
2020,10,03,07,20,12.70
2020,10,03,07,21,12.70
2020,10,03,07,22,12.70
2020,10,03,07,23,12.70
2020,10,03,07,24,12.70
2020,10,03,07,25,12.70
2020,10,03,07,26,12.70
2020,10,03,07,27,12.70
2020,10,03,07,28,12.70
2020,10,03,07,29,12.70
2020,10,03,07,30,12.70
2020,10,03,07,31,12.70
2020,10,03,07,32,12.70
2020,10,03,07,33,12.70
2020,10,03,07,34,12.70
2020,10,03,07,35,12.70
2020,10,03,07,36,12.70
2020,10,03,07,37,12.70
2020,10,03,07,38,12.70
2020,10,03,07,39,12.70
2020,10,03,07,40,12.60
2020,10,03,07,41,12.60
2020,10,03,07,42,12.60
2020,10,03,07,43,12.60
2020,10,03,07,44,12.70
2020,10,03,07,45,12.70
2020,10,03,07,46,12.70
2020,10,03,07,47,12.70
2020,10,03,07,48,12.70
2020,10,03,07,49,12.70
2020,10,03,07,50,12.80
2020,10,03,07,51,12.80
2020,10,03,07,52,12.80
2020,10,03,07,53,12.80
2020,10,03,07,54,12.70
2020,10,03,07,55,12.70
2020,10,03,07,56,12.70
2020,10,03,07,57,12.70
2020,10,03,07,58,12.70
2020,10,03,07,59,12.70
2020,10,03,08,00,12.70
2020,10,03,08,01,12.70
2020,10,03,08,02,12.70
2020,10,03,08,03,12.70
2020,10,03,08,04,12.70
2020,10,03,08,05,12.70
2020,10,03,08,06,12.70
2020,10,03,08,07,12.70
2020,10,03,08,08,12.70
2020,10,03,08,09,12.70
2020,10,03,08,10,12.70
2020,10,03,08,11,12.70
2020,10,03,08,12,12.70
2020,10,03,08,13,12.70
2020,10,03,08,14,12.70
2020,10,03,08,15,12.70
2020,10,03,08,16,12.70
2020,10,03,08,17,12.70
2020,10,03,08,18,12.80
2020,10,03,08,19,12.80
2020,10,03,08,20,12.80
2020,10,03,08,21,12.80
2020,10,03,08,22,12.90
2020,10,03,08,23,12.90
2020,10,03,08,24,13.00
2020,10,03,08,25,13.00
2020,10,03,08,26,13.00
2020,10,03,08,27,13.10
2020,10,03,08,28,13.10
2020,10,03,08,29,13.10
2020,10,03,08,30,13.20
2020,10,03,08,31,13.20
2020,10,03,08,32,13.20
2020,10,03,08,33,13.30
2020,10,03,08,34,13.30
2020,10,03,08,35,13.30
2020,10,03,08,36,13.40
2020,10,03,08,37,13.40
2020,10,03,08,38,13.50
2020,10,03,08,39,13.50
2020,10,03,08,40,13.60
2020,10,03,08,41,13.60
2020,10,03,08,42,13.60
2020,10,03,08,43,13.70
2020,10,03,08,44,13.70
2020,10,03,08,45,13.70
2020,10,03,08,46,13.70
2020,10,03,08,47,13.80
2020,10,03,08,48,13.80
2020,10,03,08,49,13.80
2020,10,03,08,50,13.80
2020,10,03,08,51,13.90
2020,10,03,08,52,13.90
2020,10,03,08,53,13.90
2020,10,03,08,54,14.00
2020,10,03,08,55,14.00
2020,10,03,08,56,14.10
2020,10,03,08,57,14.10
2020,10,03,08,58,14.20
2020,10,03,08,59,14.20
2020,10,03,09,00,14.30
2020,10,03,09,01,14.40
2020,10,03,09,02,14.50
2020,10,03,09,03,14.60
2020,10,03,09,04,14.70
2020,10,03,09,05,14.80
2020,10,03,09,06,15.00
2020,10,03,09,07,15.00
2020,10,03,09,08,15.00
2020,10,03,09,09,15.20
2020,10,03,09,10,15.20
2020,10,03,09,11,15.30
2020,10,03,09,12,15.50
2020,10,03,09,13,15.50
2020,10,03,09,14,15.60
2020,10,03,09,15,15.70
2020,10,03,09,16,15.70
2020,10,03,09,17,15.80
2020,10,03,09,18,15.90
2020,10,03,09,19,16.00
2020,10,03,09,20,16.00
2020,10,03,09,21,16.10
2020,10,03,09,22,16.20
2020,10,03,09,23,16.30
2020,10,03,09,24,16.30
2020,10,03,09,25,16.40
2020,10,03,09,26,16.40
2020,10,03,09,27,16.50
2020,10,03,09,28,16.50
2020,10,03,09,29,16.60
2020,10,03,09,30,16.60
2020,10,03,09,31,16.60
2020,10,03,09,32,16.70
2020,10,03,09,33,16.70
2020,10,03,09,34,16.70
2020,10,03,09,35,16.80
2020,10,03,09,36,16.90
2020,10,03,09,37,17.00
2020,10,03,09,38,17.10
2020,10,03,09,39,17.10
2020,10,03,09,40,17.20
2020,10,03,09,41,17.30
2020,10,03,09,42,17.30
2020,10,03,09,43,17.40
2020,10,03,09,44,17.50
2020,10,03,09,45,17.60
2020,10,03,09,46,17.80
2020,10,03,09,47,17.80
2020,10,03,09,48,18.00
2020,10,03,09,49,18.00
2020,10,03,09,50,17.90
2020,10,03,09,51,17.80
2020,10,03,09,52,17.80
2020,10,03,09,53,17.80
2020,10,03,09,54,17.80
2020,10,03,09,55,17.70
2020,10,03,09,56,17.70
2020,10,03,09,57,17.70
2020,10,03,09,58,17.60
2020,10,03,09,59,17.60
2020,10,03,10,00,17.60
2020,10,03,10,01,17.60
2020,10,03,10,02,17.60
2020,10,03,10,03,17.60
2020,10,03,10,04,17.60
2020,10,03,10,05,17.70
2020,10,03,10,06,17.70
2020,10,03,10,07,17.70
2020,10,03,10,08,17.70
2020,10,03,10,09,17.80
2020,10,03,10,10,17.80
2020,10,03,10,11,17.80
2020,10,03,10,12,17.90
2020,10,03,10,13,17.90
2020,10,03,10,14,17.90
2020,10,03,10,15,18.00
2020,10,03,10,16,18.10
2020,10,03,10,17,18.10
2020,10,03,10,18,18.20
2020,10,03,10,19,18.20
2020,10,03,10,20,18.20
2020,10,03,10,21,18.20
2020,10,03,10,22,18.30
2020,10,03,10,23,18.30
2020,10,03,10,24,18.30
2020,10,03,10,25,18.30
2020,10,03,10,26,18.30
2020,10,03,10,27,18.30
2020,10,03,10,28,18.20
2020,10,03,10,29,18.20
2020,10,03,10,30,18.20
2020,10,03,10,31,18.20
2020,10,03,10,32,18.20
2020,10,03,10,33,18.10
2020,10,03,10,34,18.00
2020,10,03,10,35,18.00
2020,10,03,10,36,17.90
2020,10,03,10,37,17.80
2020,10,03,10,38,17.70
2020,10,03,10,39,17.70
2020,10,03,10,40,17.60
2020,10,03,10,41,17.50
2020,10,03,10,42,17.40
2020,10,03,10,43,17.30
2020,10,03,10,44,17.30
2020,10,03,10,45,17.30
2020,10,03,10,46,17.20
2020,10,03,10,47,17.20
2020,10,03,10,48,17.20
2020,10,03,10,49,17.30
2020,10,03,10,50,17.30
2020,10,03,10,51,17.30
2020,10,03,10,52,17.30
2020,10,03,10,53,17.30
2020,10,03,10,54,17.30
2020,10,03,10,55,17.30
2020,10,03,10,56,17.30
2020,10,03,10,57,17.30
2020,10,03,10,58,17.40
2020,10,03,10,59,17.50
2020,10,03,11,00,17.60
2020,10,03,11,01,17.70
2020,10,03,11,02,17.70
2020,10,03,11,03,17.70
2020,10,03,11,04,17.70
2020,10,03,11,05,17.70
2020,10,03,11,06,17.70
2020,10,03,11,07,17.60
2020,10,03,11,08,17.60
2020,10,03,11,09,17.60
2020,10,03,11,10,17.60
2020,10,03,11,11,17.60
2020,10,03,11,12,17.70
2020,10,03,11,13,17.70
2020,10,03,11,14,17.60
2020,10,03,11,15,17.60
2020,10,03,11,16,17.70
2020,10,03,11,17,17.80
2020,10,03,11,18,17.80
2020,10,03,11,19,17.70
2020,10,03,11,20,17.60
2020,10,03,11,21,17.60
2020,10,03,11,22,17.50
2020,10,03,11,23,17.40
2020,10,03,11,24,17.40
2020,10,03,11,25,17.40
2020,10,03,11,26,17.50
2020,10,03,11,27,17.60
2020,10,03,11,28,17.60
2020,10,03,11,29,17.60
2020,10,03,11,30,17.60
2020,10,03,11,31,17.60
2020,10,03,11,32,17.60
2020,10,03,11,33,17.60
2020,10,03,11,34,17.60
2020,10,03,11,35,17.60
2020,10,03,11,36,17.60
2020,10,03,11,37,17.60
2020,10,03,11,38,17.60
2020,10,03,11,39,17.60
2020,10,03,11,40,17.60
2020,10,03,11,41,17.50
2020,10,03,11,42,17.40
2020,10,03,11,43,17.30
2020,10,03,11,44,17.30
2020,10,03,11,45,17.30
2020,10,03,11,46,17.30
2020,10,03,11,47,17.30
2020,10,03,11,48,17.40
2020,10,03,11,49,17.40
2020,10,03,11,50,17.40
2020,10,03,11,51,17.40
2020,10,03,11,52,17.40
2020,10,03,11,53,17.50
2020,10,03,11,54,17.60
2020,10,03,11,55,17.70
2020,10,03,11,56,17.80
2020,10,03,11,57,17.80
2020,10,03,11,58,17.80
2020,10,03,11,59,17.80
2020,10,03,12,00,17.80
2020,10,03,12,01,17.90
2020,10,03,12,02,17.90
2020,10,03,12,03,17.90
2020,10,03,12,04,17.90
2020,10,03,12,05,17.80
2020,10,03,12,06,17.80
2020,10,03,12,07,17.80
2020,10,03,12,08,17.90
2020,10,03,12,09,17.90
2020,10,03,12,10,17.80
2020,10,03,12,11,17.90
2020,10,03,12,12,17.90
2020,10,03,12,13,17.80
2020,10,03,12,14,17.80
2020,10,03,12,15,17.70
2020,10,03,12,16,17.70
2020,10,03,12,17,17.60
2020,10,03,12,18,17.50
2020,10,03,12,19,17.50
2020,10,03,12,20,17.50
2020,10,03,12,21,17.60
2020,10,03,12,22,17.60
2020,10,03,12,23,17.60
2020,10,03,12,24,17.60
2020,10,03,12,25,17.60
2020,10,03,12,26,17.60
2020,10,03,12,27,17.60
2020,10,03,12,28,17.50
2020,10,03,12,29,17.50
2020,10,03,12,30,17.50
2020,10,03,12,31,17.40
2020,10,03,12,32,17.40
2020,10,03,12,33,17.50
2020,10,03,12,34,17.50
2020,10,03,12,35,17.60
2020,10,03,12,36,17.60
2020,10,03,12,37,17.60
2020,10,03,12,38,17.60
2020,10,03,12,39,17.60
2020,10,03,12,40,17.60
2020,10,03,12,41,17.60
2020,10,03,12,42,17.60
2020,10,03,12,43,17.60
2020,10,03,12,44,17.60
2020,10,03,12,45,17.60
2020,10,03,12,46,17.60
2020,10,03,12,47,17.50
2020,10,03,12,48,17.40
2020,10,03,12,49,17.40
2020,10,03,12,50,17.40
2020,10,03,12,51,17.30
2020,10,03,12,52,17.10
2020,10,03,12,53,16.90
2020,10,03,12,54,16.80
2020,10,03,12,55,16.80
2020,10,03,12,56,16.80
2020,10,03,12,57,16.90
2020,10,03,12,58,17.00
2020,10,03,12,59,17.10
2020,10,03,13,00,17.30
2020,10,03,13,01,17.40
2020,10,03,13,02,17.50
2020,10,03,13,03,17.50
2020,10,03,13,04,17.50
2020,10,03,13,05,17.40
2020,10,03,13,06,17.30
2020,10,03,13,07,17.10
2020,10,03,13,08,17.00
2020,10,03,13,09,17.00
2020,10,03,13,10,17.00
2020,10,03,13,11,17.10
2020,10,03,13,12,17.10
2020,10,03,13,13,17.10
2020,10,03,13,14,17.00
2020,10,03,13,15,16.90
2020,10,03,13,16,16.90
2020,10,03,13,17,16.80
2020,10,03,13,18,16.70
2020,10,03,13,19,16.60
2020,10,03,13,20,16.60
2020,10,03,13,21,16.50
2020,10,03,13,22,16.50
2020,10,03,13,23,16.40
2020,10,03,13,24,16.40
2020,10,03,13,25,16.40
2020,10,03,13,26,16.50
2020,10,03,13,27,16.50
2020,10,03,13,28,16.50
2020,10,03,13,29,16.50
2020,10,03,13,30,16.60
2020,10,03,13,31,16.60
2020,10,03,13,32,16.70
2020,10,03,13,33,16.70
2020,10,03,13,34,16.70
2020,10,03,13,35,16.70
2020,10,03,13,36,16.80
2020,10,03,13,37,16.80
2020,10,03,13,38,16.80
2020,10,03,13,39,16.80
2020,10,03,13,40,16.90
2020,10,03,13,41,17.00
2020,10,03,13,42,17.00
2020,10,03,13,43,17.10
2020,10,03,13,44,17.10
2020,10,03,13,45,17.10
2020,10,03,13,46,17.10
2020,10,03,13,47,17.10
2020,10,03,13,48,17.10
2020,10,03,13,49,17.10
2020,10,03,13,50,17.00
2020,10,03,13,51,17.00
2020,10,03,13,52,17.00
2020,10,03,13,53,16.90
2020,10,03,13,54,17.00
2020,10,03,13,55,17.00
2020,10,03,13,56,17.00
2020,10,03,13,57,17.00
2020,10,03,13,58,16.90
2020,10,03,13,59,16.90
2020,10,03,14,00,16.90
2020,10,03,14,01,16.90
2020,10,03,14,02,16.80
2020,10,03,14,03,16.80
2020,10,03,14,04,16.70
2020,10,03,14,05,16.70
2020,10,03,14,06,16.70
2020,10,03,14,07,16.70
2020,10,03,14,08,16.70
2020,10,03,14,09,16.70
2020,10,03,14,10,16.70
2020,10,03,14,11,16.60
2020,10,03,14,12,16.60
2020,10,03,14,13,16.60
2020,10,03,14,14,16.60
2020,10,03,14,15,16.60
2020,10,03,14,16,16.60
2020,10,03,14,17,16.60
2020,10,03,14,18,16.50
2020,10,03,14,19,16.50
2020,10,03,14,20,16.50
2020,10,03,14,21,16.50
2020,10,03,14,22,16.50
2020,10,03,14,23,16.50
2020,10,03,14,24,16.50
2020,10,03,14,25,16.40
2020,10,03,14,26,16.40
2020,10,03,14,27,16.40
2020,10,03,14,28,16.40
2020,10,03,14,29,16.30
2020,10,03,14,30,16.30
2020,10,03,14,31,16.30
2020,10,03,14,32,16.30
2020,10,03,14,33,16.20
2020,10,03,14,34,16.30
2020,10,03,14,35,16.30
2020,10,03,14,36,16.30
2020,10,03,14,37,16.30
2020,10,03,14,38,16.30
2020,10,03,14,39,16.30
2020,10,03,14,40,16.30
2020,10,03,14,41,16.30
2020,10,03,14,42,16.30
2020,10,03,14,43,16.30
2020,10,03,14,44,16.30
2020,10,03,14,45,16.20
2020,10,03,14,46,16.20
2020,10,03,14,47,16.20
2020,10,03,14,48,16.20
2020,10,03,14,49,16.10
2020,10,03,14,50,16.20
2020,10,03,14,51,16.20
2020,10,03,14,52,16.10
2020,10,03,14,53,16.10
2020,10,03,14,54,16.20
2020,10,03,14,55,16.20
2020,10,03,14,56,16.30
2020,10,03,14,57,16.40
2020,10,03,14,58,16.40
2020,10,03,14,59,16.30
2020,10,03,15,00,16.20
2020,10,03,15,01,16.20
2020,10,03,15,02,16.20
2020,10,03,15,03,16.20
2020,10,03,15,04,16.20
2020,10,03,15,05,16.20
2020,10,03,15,06,16.20
2020,10,03,15,07,16.20
2020,10,03,15,08,16.20
2020,10,03,15,09,16.20
2020,10,03,15,10,16.20
2020,10,03,15,11,16.10
2020,10,03,15,12,16.10
2020,10,03,15,13,16.10
2020,10,03,15,14,16.20
2020,10,03,15,15,16.20
2020,10,03,15,16,16.20
2020,10,03,15,17,16.20
2020,10,03,15,18,16.20
2020,10,03,15,19,16.20
2020,10,03,15,20,16.30
2020,10,03,15,21,16.30
2020,10,03,15,22,16.20
2020,10,03,15,23,16.30
2020,10,03,15,24,16.30
2020,10,03,15,25,16.30
2020,10,03,15,26,16.40
2020,10,03,15,27,16.50
2020,10,03,15,28,16.50
2020,10,03,15,29,16.60
2020,10,03,15,30,16.60
2020,10,03,15,31,16.70
2020,10,03,15,32,16.70
2020,10,03,15,33,16.80
2020,10,03,15,34,16.80
2020,10,03,15,35,16.90
2020,10,03,15,36,16.90
2020,10,03,15,37,16.90
2020,10,03,15,38,16.90
2020,10,03,15,39,16.90
2020,10,03,15,40,16.90
2020,10,03,15,41,16.90
2020,10,03,15,42,16.90
2020,10,03,15,43,16.90
2020,10,03,15,44,16.90
2020,10,03,15,45,16.90
2020,10,03,15,46,16.90
2020,10,03,15,47,16.90
2020,10,03,15,48,16.90
2020,10,03,15,49,16.90
2020,10,03,15,50,16.90
2020,10,03,15,51,16.90
2020,10,03,15,52,16.90
2020,10,03,15,53,16.90
2020,10,03,15,54,16.80
2020,10,03,15,55,16.80
2020,10,03,15,56,16.80
2020,10,03,15,57,16.80
2020,10,03,15,58,16.90
2020,10,03,15,59,16.90
2020,10,03,16,00,16.90
2020,10,03,16,01,17.00
2020,10,03,16,02,17.00
2020,10,03,16,03,17.10
2020,10,03,16,04,17.10
2020,10,03,16,05,17.10
2020,10,03,16,06,17.10
2020,10,03,16,07,17.10
2020,10,03,16,08,17.10
2020,10,03,16,09,17.20
2020,10,03,16,10,17.20
2020,10,03,16,11,17.20
2020,10,03,16,12,17.20
2020,10,03,16,13,17.20
2020,10,03,16,14,17.10
2020,10,03,16,15,17.10
2020,10,03,16,16,17.10
2020,10,03,16,17,17.00
2020,10,03,16,18,17.00
2020,10,03,16,19,17.00
2020,10,03,16,20,16.90
2020,10,03,16,21,16.90
2020,10,03,16,22,16.90
2020,10,03,16,23,16.90
2020,10,03,16,24,16.90
2020,10,03,16,25,16.90
2020,10,03,16,26,16.90
2020,10,03,16,27,16.90
2020,10,03,16,28,16.80
2020,10,03,16,29,16.90
2020,10,03,16,30,16.80
2020,10,03,16,31,16.80
2020,10,03,16,32,16.80
2020,10,03,16,33,16.80
2020,10,03,16,34,16.80
2020,10,03,16,35,16.80
2020,10,03,16,36,16.80
2020,10,03,16,37,16.80
2020,10,03,16,38,16.80
2020,10,03,16,39,16.70
2020,10,03,16,40,16.70
2020,10,03,16,41,16.70
2020,10,03,16,42,16.70
2020,10,03,16,43,16.70
2020,10,03,16,44,16.70
2020,10,03,16,45,16.70
2020,10,03,16,46,16.60
2020,10,03,16,47,16.60
2020,10,03,16,48,16.60
2020,10,03,16,49,16.50
2020,10,03,16,50,16.50
2020,10,03,16,51,16.50
2020,10,03,16,52,16.50
2020,10,03,16,53,16.50
2020,10,03,16,54,16.40
2020,10,03,16,55,16.40
2020,10,03,16,56,16.40
2020,10,03,16,57,16.30
2020,10,03,16,58,16.30
2020,10,03,16,59,16.30
2020,10,03,17,00,16.30
2020,10,03,17,01,16.30
2020,10,03,17,02,16.30
2020,10,03,17,03,16.30
2020,10,03,17,04,16.30
2020,10,03,17,05,16.30
2020,10,03,17,06,16.30
2020,10,03,17,07,16.20
2020,10,03,17,08,16.20
2020,10,03,17,09,16.20
2020,10,03,17,10,16.20
2020,10,03,17,11,16.20
2020,10,03,17,12,16.20
2020,10,03,17,13,16.20
2020,10,03,17,14,16.10
2020,10,03,17,15,16.10
2020,10,03,17,16,16.10
2020,10,03,17,17,16.10
2020,10,03,17,18,16.10
2020,10,03,17,19,16.00